Flag for Guatemala Weather past 2 weeks in Escuintla, Guatemala

Now
61 °F

Clear.


Feels Like: 61 °F
Forecast: 74 / 96 °F
Wind: 9 mph from Northeast

Location: Guatemala Aeropuertola Aurora


UV Index: 7 (High)

Visibility: 10 mi


Pressure: 30.21 "Hg

Humidity: 94%

Dew point: 59 °F

Location of EscuintlaLocation

Historic Weather in Escuintla

°F

Escuintla temperature yesterday

Maximum temperature yesterday: 82 °F (at 1:00 PM)
Minimum temperature yesterday: 63 °F (at 3:00 AM)
Average temperature yesterday: 71 °F

Past Weeks' High & Low Weather Summary

 TemperatureHumidityPressure
High82 °F (Apr 21, 2:00 PM)94% (Apr 8, 4:00 AM)30.45 "Hg (Apr 8, 4:00 AM)
Low55 °F (Apr 9, 12:00 AM)24% (Apr 12, 4:00 PM)30.12 "Hg (Apr 13, 3:00 PM)
Average68 °F67%30.26 "Hg
* Reported Apr 8 3:00 AM — Apr 23 3:00 AM, Escuintla, Weather by CustomWeather, © 2014

Note: Actual official high and low records may vary slightly from our data, if they occured in-between our weather recording intervals... More about our weather records

Advertising

Historic Weather Conditions — Data for Previous 24 hours

 ConditionsComfort  
Time TempWeatherWind HumidityBarometerVisibility
3:00 AM
Apr 23
61 °FClear.9 mph94%30.21 "Hg10 mi
2:00 AM63 °FClear.7 mph88%30.24 "Hg10 mi
1:00 AM64 °FClear.7 mph78%30.27 "Hg10 mi
12:00 AM66 °FClear.9 mph73%30.27 "Hg10 mi
11:00 PM
Apr 22
66 °FClear.9 mph73%30.27 "Hg10 mi
10:00 PM68 °FPassing clouds.12 mph69%30.30 "HgN/A
9:00 PM68 °FPassing clouds.14 mph69%30.27 "HgN/A
8:00 PM70 °FPassing clouds.16 mph60%30.24 "HgN/A
7:00 PM72 °FPassing clouds.18 mph53%30.18 "HgN/A
6:00 PM73 °FScattered clouds.16 mph57%30.18 "HgN/A
5:00 PM77 °FPartly sunny.12 mph54%30.15 "HgN/A
4:00 PM79 °FPartly sunny.12 mph48%30.15 "HgN/A
3:00 PM81 °FBroken clouds.14 mph45%30.15 "HgN/A
2:00 PM82 °FBroken clouds.12 mph40%30.18 "HgN/A
1:00 PM82 °FPartly sunny.9 mph40%30.21 "HgN/A
12:00 PM79 °FBroken clouds.7 mph48%30.24 "HgN/A
11:00 AM77 °FBroken clouds.12 mph51%30.27 "HgN/A
10:00 AM75 °FBroken clouds.14 mph54%30.30 "HgN/A
9:00 AM72 °FScattered clouds.12 mph61%30.27 "HgN/A
8:00 AM70 °FPassing clouds.7 mph64%30.27 "HgN/A
7:00 AM64 °FSunny.9 mph83%30.27 "Hg10 mi
Weather by CustomWeather, © 2014

See weather overview